1393459232406,176.385
1393459292406,176.443
1393459352406,176.724
1393459412406,176.584
1393459472406,176.332
1393459532406,176.514
1393459592406,176.344
1393459652406,176.683
1393459712406,176.910
1393459772406,176.403
1393459832406,176.623
1393459892406,177.058
1393459952406,176.797
1393460012406,177.085
1393460072406,176.943
1393460132406,176.284
1393460192406,176.628
1393460252406,176.530
1393460312406,176.780
1393460372406,176.947
1393460432406,176.749
1393460492406,176.652
1393460552406,176.746
1393460612406,176.782
1393460672406,177.056
1393460732406,176.855
1393460792406,176.582
1393460852406,176.641
1393460912406,176.692
1393460972406,176.608
1393461032406,176.666
1393461092406,176.416
1393461152406,176.470
1393461212406,176.780
1393461272406,176.449
1393461332406,176.499
1393461392406,176.648
1393461452406,176.666
1393461512406,176.924
1393461572406,176.843
1393461632406,176.845
1393461692406,176.859
1393461752406,176.722
1393461812406,176.832
1393461872406,176.670
1393461932406,176.902
1393461992406,176.983
1393462052406,176.685
1393462112406,176.745
1393462172406,176.847
1393462232406,177.035
1393462292406,176.853
1393462352406,176.865
1393462412406,177.423
1393462472406,176.704
1393462532406,177.226
1393462592406,177.353
1393462652406,177.390
1393462712406,176.797
1393462772406,177.009
1393462832418,176.898
1393462892418,176.785
1393462952418,177.117
1393463012418,177.621
1393463072418,177.385
1393463132418,177.511
1393463192418,177.540
1393463252418,177.601
1393463312418,177.591
1393463372418,177.909
1393463432418,177.373
1393463492418,177.974
1393463552418,177.707
1393463612418,177.763
1393463672418,177.691
1393463732418,177.703
1393463792418,177.545
1393463852418,177.647
1393463912418,177.630
1393463972418,177.984
1393464032418,177.813
1393464092418,177.279
1393464152418,177.572
1393464212418,177.330
1393464272418,177.535
1393464332418,177.288
1393464392418,177.124
1393464452418,177.700
1393464512418,177.645
1393464572418,177.392
1393464632418,177.436
1393464692418,177.280
1393464752418,177.263
1393464812418,177.521
1393464872418,177.751
1393464932418,177.225
1393464992418,177.391
1393465052418,177.280
1393465112418,177.031
1393465172418,177.556
1393465232418,177.792
1393465292418,177.369
1393465352418,177.369
1393465412418,177.413
1393465472418,177.438
1393465532418,176.915
1393465592418,177.569
1393465652418,177.660
1393465712418,177.469
1393465772418,177.649
1393465832418,177.512
1393465892418,177.472
1393465952418,177.650
1393466012418,177.299
1393466072418,177.453
1393466132418,177.569
1393466192418,177.200
1393466252418,177.489
1393466312418,177.261
1393466372418,177.120
1393466432431,176.992
1393466492431,177.201
1393466552431,177.386
1393466612431,176.967
1393466672431,177.052
1393466732431,177.395
1393466792431,177.479
1393466852431,177.074
1393466912431,176.665
1393466972431,177.081
1393467032431,177.189
1393467092431,177.065
1393467152431,176.930
1393467212431,176.993
1393467272431,177.242
1393467332431,177.353
1393467392431,177.131
1393467452431,176.758
1393467512431,177.243
1393467572431,176.661
1393467632431,176.987
1393467692431,177.260
1393467752431,176.806
1393467812431,177.107
1393467872431,176.890
1393467932431,177.271
1393467992431,177.308
1393468052431,177.032
1393468112431,177.286
1393468172431,176.898
1393468232431,177.100
1393468292431,177.281
1393468352431,177.145
1393468412431,177.511
1393468472431,176.914
1393468532431,177.184
1393468592431,177.016
1393468652431,176.983
1393468712431,176.863
1393468772431,177.283
1393468832431,177.328
1393468892431,177.641
1393468952431,177.163
1393469012431,177.160
1393469072431,177.311
1393469132431,177.294
1393469192431,177.026
1393469252431,177.021
1393469312431,176.880
1393469372431,177.036
1393469432431,177.440
1393469492431,176.762
1393469552431,177.314
1393469612431,177.062
1393469672431,177.058
1393469732431,177.260
1393469792431,177.255
1393469852431,177.255
1393469912431,177.147
1393469972431,177.105
1393470032444,177.254
1393470092443,177.187
1393470152443,176.797
1393470212444,177.401
1393470272444,177.388
1393470332444,177.075
1393470392444,177.418
1393470452444,177.303
1393470512444,177.211
1393470572444,177.334
1393470632444,177.286
1393470692444,177.122
1393470752444,176.892
1393470812444,177.255
1393470872444,177.348
1393470932444,177.406
1393470992444,177.200
1393471052444,177.326
1393471112444,177.359
1393471172444,177.172
1393471232444,177.691
1393471292444,177.253
1393471352444,177.189
1393471412443,177.361
1393471472443,177.822
1393471532444,177.707
1393471592444,177.611
1393471652444,177.378
1393471712444,177.376
1393471772444,177.525
1393471832444,177.298
1393471892444,177.726
1393471952444,177.368
1393472012444,177.615
1393472072444,176.975
1393472132444,177.270
1393472192444,177.457
1393472252444,176.838
1393472312444,177.528
1393472372444,177.253
1393472432444,177.345
1393472492444,177.216
1393472552444,177.292
1393472612444,177.133
1393472672444,177.364
1393472732444,177.433
1393472792443,177.182
1393472852443,177.514
1393472912444,177.124
1393472972444,177.561
1393473032444,177.347
1393473092444,177.607
1393473152444,177.632
1393473212444,177.070
1393473272444,177.333
1393473332444,176.847
1393473392444,177.435
1393473452444,177.173
1393473512444,177.211
1393473572444,177.298
1393473632456,177.499
1393473692456,177.255
1393473752456,177.363
1393473812456,177.584
1393473872456,177.009
1393473932456,177.329
1393473992456,177.129
1393474052456,177.054
1393474112456,177.547
1393474172456,177.313
1393474232456,177.520
1393474292456,177.258
1393474352456,176.898
1393474412456,177.197
1393474472456,176.853
1393474532456,177.103
1393474592456,177.145
1393474652456,176.863
1393474712456,177.013
1393474772456,177.091
1393474832456,176.924
1393474892456,177.346
1393474952456,177.497
1393475012456,177.245
1393475072456,176.991
1393475132456,176.861
1393475192456,177.586
1393475252456,177.196
1393475312456,177.046
1393475372456,177.410
1393475432456,177.346
1393475492456,176.920
1393475552456,177.151
1393475612456,177.051
1393475672456,177.088
1393475732456,177.198
1393475792456,177.057
1393475852456,176.885
1393475912456,176.956
1393475972456,177.016
1393476032456,176.778
1393476092456,176.847
1393476152456,176.786
1393476212456,176.497
1393476272456,177.058
1393476332456,176.899
1393476392456,176.809
1393476452456,176.716
1393476512456,176.932
1393476572456,176.836
1393476632456,177.027
1393476692456,177.028
1393476752456,177.016
1393476812456,176.489
1393476872456,176.403
1393476932456,176.448
1393476992456,176.654
1393477052456,176.403
1393477112456,176.501
1393477172456,176.544
1393477232469,176.438
1393477292469,176.367
1393477352469,176.619
1393477412469,176.294
1393477472469,176.353
1393477532469,176.656
1393477592469,176.565
1393477652469,176.573
1393477712469,176.321
1393477772469,176.427
1393477832469,176.691
1393477892469,176.635
1393477952469,176.363
1393478012469,176.522
1393478072469,176.497
1393478132469,176.701
1393478192469,176.442
1393478252469,176.415
1393478312469,176.588
1393478372469,176.426
1393478432469,177.076
1393478492469,176.656
1393478552469,176.360
1393478612469,176.427
1393478672469,176.293
1393478732469,176.343
1393478792469,176.462
1393478852469,176.884
1393478912469,176.409
1393478972469,177.137
1393479032469,176.052
1393479092469,175.977
1393479152469,176.206
1393479212469,176.411
1393479272469,176.325
1393479332469,175.791
1393479392469,176.099
1393479452469,176.529
1393479512469,176.639
1393479572469,175.958
1393479632469,176.401
1393479692469,176.139
1393479752469,176.456
1393479812469,176.352
1393479872469,176.042
1393479932469,176.110
1393479992469,176.391
1393480052469,176.309
1393480112469,176.308
1393480172469,176.195
1393480232469,176.349
1393480292469,176.281
1393480352469,176.336
1393480412469,176.407
1393480472469,176.424
1393480532469,175.878
1393480592469,176.333
1393480652469,176.540
1393480712469,176.427
1393480772469,176.204
1393480832481,175.964
1393480892481,176.049
1393480952481,176.348
1393481012481,176.102
1393481072481,176.324
1393481132481,176.140
1393481192481,176.460
1393481252481,175.848
1393481312481,176.394
1393481372481,176.280
1393481432481,176.471
1393481492481,176.898
1393481552481,176.454
1393481612481,176.700
1393481672481,176.380
1393481732481,176.329
1393481792481,176.449
1393481852481,176.330
1393481912481,176.299
1393481972481,176.295
1393482032481,176.387
1393482092481,176.115
1393482152481,175.949
1393482212481,176.346
1393482272481,176.504
1393482332481,176.237
1393482392481,176.442
1393482452481,176.549
1393482512481,176.308
1393482572481,176.310
1393482632481,176.626
1393482692481,176.551
1393482752481,176.483
1393482812481,176.430
1393482872481,176.459
1393482932481,176.296
1393482992481,176.647
1393483052481,176.571
1393483112481,176.496
1393483172481,176.753
1393483232481,176.532
1393483292481,176.833
1393483352481,176.798
1393483412481,176.974
1393483472481,176.791
1393483532481,176.698
1393483592481,177.170
1393483652481,176.755
1393483712481,177.040
1393483772481,176.510
1393483832481,176.900
1393483892481,176.924
1393483952481,176.560
1393484012481,176.850
1393484072481,176.885
1393484132481,176.794
1393484192481,177.133
1393484252481,176.951
1393484312481,176.636
1393484372481,176.366
1393484432494,175.381
1393486592494,175.580
1393486652494,177.400
1393486712494,177.657
1393486772494,178.209
1393486832494,177.924
1393486892494,177.823
1393486952494,177.807
1393487012494,177.932
1393487072494,177.735
1393487132494,177.873
1393487192494,177.754
1393487252494,177.741
1393487312494,177.898
1393487372494,177.978
1393487432494,177.724
1393487492494,177.848
1393487552494,177.621
1393487612494,177.713
1393487672494,177.626
1393487732494,177.745
1393487792494,177.500
1393487852494,177.530
1393487912494,177.514
1393487972494,177.593
1393488032506,177.300
1393488092506,177.303
1393488152506,177.197
1393488212506,177.323
1393488272506,177.609
1393488332506,177.752
1393488392506,177.549
1393488452506,177.181
1393488512506,177.537
1393488572506,177.676
1393488632506,177.457
1393488692506,177.694
1393488752506,177.387
1393488812506,177.445
1393488872506,177.925
1393488932506,177.502
1393488992506,177.826
1393489052506,177.734
1393489112506,177.353
1393489172506,177.516
1393489232506,177.899
1393489292506,177.780
1393489352506,177.684
1393489412506,177.361
1393489472506,177.611
1393489532506,177.321
1393489592506,177.771
1393489652506,177.462
1393489712506,177.643
1393489772506,177.480
1393489832506,177.426
1393489892506,177.660
1393489952506,177.966
1393490012506,177.957
1393490072506,177.718
1393490132506,177.471
1393490192506,177.928
1393490252506,178.000
1393490312506,178.125
1393490372506,178.181
1393490432506,177.941
1393490492506,178.234
1393490552506,178.317
1393490612506,177.652
1393490672506,177.744
1393490732506,177.522
1393490792506,177.374
1393490852506,177.482
1393490912506,177.025
1393490972506,177.601
1393491032506,177.253
1393491092506,177.451
1393491152506,177.399
1393491212506,177.688
1393491272506,177.659
1393491332506,177.594
1393491392506,177.560
1393491452506,177.550
1393491512506,177.729
1393491572506,177.471
1393491632519,177.709
1393491692519,177.482
1393491752519,177.607
1393491812519,177.357
1393491872519,177.555
1393491932519,177.505
1393491992519,177.586
1393492052519,177.611
1393492112519,177.358
1393492172519,177.797
1393492232519,177.823
1393492292519,174.144
1393492832519,177.320
1393492892519,177.648
1393492952519,177.665
1393493012519,177.597
1393493072519,177.611
1393493132519,177.833
1393493192519,177.860
1393493252519,177.504
1393493312519,177.845
1393493372519,177.709
1393493432519,177.733
1393493492519,177.512
1393493552519,177.632
1393493612519,177.779
1393493672519,177.443
1393493732519,177.551
1393493792519,177.445
1393493852519,177.874
1393493912519,177.672
1393493972519,177.665
1393494032519,177.794
1393494092519,177.470
1393494152519,177.522
1393494212519,177.687
1393494272519,177.508
1393494332519,177.759
1393494392519,177.963
1393494452519,178.020
1393494512519,177.689
1393494572519,177.963
1393494632519,177.934
1393494692519,178.269
1393494752519,178.017
1393494812519,177.643
1393494872519,177.989
1393494932519,178.566
1393494992519,178.509
1393495052519,178.330
1393495112519,177.975
1393495172519,178.580
1393495232531,178.228
1393495292531,178.230
1393495352531,178.198
1393495412531,178.617
1393495472531,178.284
1393495532531,178.564
1393495592531,178.400
1393495652531,178.552
1393495712531,178.324
1393495772531,178.609
1393495832531,178.637
1393495892531,178.519
1393495952531,178.417
1393496012531,178.623
1393496072531,178.637
1393496132531,178.519
1393496192531,178.390
1393496252531,178.471
1393496312531,178.334
1393496372531,178.429
1393496432531,178.248
1393496492531,178.453
1393496552531,178.396
1393496612531,178.688
1393496672531,178.268
1393496732531,178.434
1393496792531,178.402
1393496852531,178.295
1393496912531,178.177
1393496972531,178.295
1393497032531,178.032
1393497092531,178.117
1393497152531,177.708
1393497212531,177.926
1393497272531,178.097
1393497332531,177.809
1393497392531,178.055
1393497452531,177.922
1393497512531,178.147
1393497572531,177.711
1393497632531,177.835
1393497692531,177.780
1393497752531,177.996
1393497812531,177.994
1393497872531,178.443
1393497932531,178.458
1393497992531,178.192
1393498052531,178.408
1393498112531,178.438
1393498172531,178.580
1393498232531,178.751
1393498292531,178.091
1393498352531,177.720
1393498412531,178.173
1393498472531,177.823
1393498532531,177.558
1393498592531,178.139
1393498652531,178.359
1393498712531,178.157
1393498772531,178.029
1393498832544,177.984
1393498892544,177.985
1393498952544,177.797
1393499012544,177.955
1393499072544,178.056
1393499132544,177.821
1393499192544,177.846
1393499252544,178.022
1393499312544,177.880
1393499372544,177.721
1393499432544,178.192
1393499492544,178.049
1393499552544,177.980
1393499612544,177.562
1393499672544,177.765
1393499732544,177.687
1393499792544,177.934
1393499852544,177.784
1393499912544,177.907
1393499972544,177.916
1393500032544,178.091
1393500092544,177.870
1393500152544,177.180
1393500212544,177.753
1393500272544,177.929
1393500332544,177.736
1393500392544,177.798
1393500452544,177.881
1393500512544,177.708
1393500572544,178.011
1393500632544,177.627
1393500692544,178.161
1393500752544,177.969
1393500812544,177.749
1393500872544,177.758
1393500932544,177.990
1393500992544,177.762
1393501052544,177.747
1393501112544,178.163
1393501172544,177.533
1393501232544,177.815
1393501292544,177.968
1393501352544,177.968
1393501412544,178.178
1393501472544,177.966
1393501532544,178.153
1393501592544,177.421
1393501652544,178.042
1393501712544,177.831
1393501772544,177.861
1393501832544,178.113
1393501892544,178.020
1393501952544,178.056
1393502012544,178.510
1393502072544,178.028
1393502132544,178.257
1393502192544,178.093
1393502252544,178.207
1393502312544,177.959
1393502372544,178.160
1393502432557,178.167
1393502492557,178.071
1393502552557,178.074
1393502612557,178.260
1393502672557,178.395
1393502732557,178.453
1393502792557,178.324
1393502852557,178.229
1393502912557,178.395
1393502972557,178.116
1393503032557,178.110
1393503092557,178.372
1393503152557,178.486
1393503212557,178.320
1393503272557,179.224
1393503332557,178.654
1393503392557,178.243
1393503452557,178.254
1393503512557,178.282
1393503572557,178.390
1393503632557,178.128
1393503692557,178.398
1393503752557,178.372
1393503812557,178.221
1393503872557,178.099
1393503932557,178.493
1393503992557,178.508
1393504052557,178.873
1393504112557,179.733
1393504172557,179.082
1393504232557,178.986
1393504292557,179.448
1393504352557,178.367
1393504412557,178.376
1393504472557,178.119
1393504532557,178.074
1393504592557,178.090
1393504652557,178.250
1393504712557,178.374
1393504772557,178.390
1393504832557,177.974
1393504892557,178.213
1393504952557,178.279
1393505012557,178.145
1393505072557,178.389
1393505132557,178.093
1393505192557,177.927
1393505252557,177.856
1393505312557,178.068
1393505372557,178.288
1393505432557,177.801
1393505492557,178.773
1393505552557,178.351
1393505612557,178.388
1393505672557,178.374
1393505732557,178.325
1393505792557,178.921
1393505852557,178.561
1393505912557,178.167
1393505972557,178.153
1393506032569,178.482
1393506092569,178.481
1393506152569,178.761
1393506212569,178.575
1393506272569,178.451
1393506332569,178.485
1393506392569,178.389
1393506452569,178.432
1393506512569,178.637
1393506572569,178.705
1393506632569,178.435
1393506692569,178.120
1393506752569,178.539
1393506812569,178.396
1393506872569,178.602
1393506932569,178.280
1393506992569,177.866
1393507052569,177.881
1393507112569,178.394
1393507172569,178.023
1393507232569,178.340
1393507292569,178.374
1393507352569,178.252
1393507412569,178.377
1393507472569,178.211
1393507532569,177.898
1393507592569,178.117
1393507652569,177.696
1393507712569,178.498
1393507772569,178.061
1393507832569,178.187
1393507892569,178.159
1393507952569,177.976
1393508012569,177.767
1393508072569,177.703
1393508132569,177.878
1393508192569,177.705
1393508252569,177.939
1393508312569,177.767
1393508372569,178.108
1393508432569,177.800
1393508492569,177.628
1393508552569,177.775
1393508612569,178.086
1393508672569,178.038
1393508732569,178.198
1393508792569,178.188
1393508852569,177.950
1393508912569,177.766
1393508972569,178.031
1393509032569,177.756
1393509092569,178.218
1393509152569,178.214
1393509212569,178.233
1393509272569,177.973
1393509332569,177.999
1393509392569,177.868
1393509452569,177.913
1393509512569,178.195
1393509572569,177.966
1393509632582,178.197
1393509692582,177.801
1393509752582,177.593
1393509812582,177.726
1393509872582,178.024
1393509932582,178.123
1393509992582,177.757
1393510052582,178.197
1393510112582,177.928
1393510172582,177.794
1393510232582,177.876
1393510292582,177.704
1393510352582,177.747
1393510412582,178.133
1393510472582,177.794
1393510532582,178.357
1393510592582,177.859
1393510652582,177.834
1393510712582,178.028
1393510772582,178.239
1393510832582,178.317
1393510892582,178.979
1393510952582,178.016
1393511012582,178.573
1393511072582,178.033
1393511132582,178.464
1393511192582,178.255
1393511252582,178.089
1393511312582,178.224
1393511372582,178.094
1393511432582,177.995
1393511492582,178.515
1393511552582,178.651
1393511612582,178.313
1393511672582,178.515
1393511732582,178.095
1393511792582,178.177
1393511852582,178.244
1393511912582,178.120
1393511972582,178.187
1393512032582,178.185
1393512092582,178.411
1393512152582,178.063
1393512212582,178.375
1393512272582,178.021
1393512332582,177.550
1393512392582,178.332
1393512452582,177.773
1393512512582,177.966
1393512572582,177.665
1393512632582,177.633
1393512692582,177.719
1393512752582,178.056
1393512812582,177.909
1393512872582,178.132
1393512932582,177.753
1393512992582,177.657
1393513052582,177.692
1393513112582,177.832
1393513172582,177.877
1393513232594,177.938
1393513292594,177.169
1393513352594,178.035
1393513412594,177.578
1393513472594,177.705
1393513532594,177.764
1393513592594,177.402
1393513652594,177.824
1393513712594,177.915
1393513772594,177.686
1393513832594,177.927
1393513892594,178.081
1393513952594,177.784
1393514012594,177.997
1393514072594,177.995
1393514132594,177.943
1393514192594,178.163
1393514252594,178.311
1393514312594,177.717
1393514372594,177.860
1393514432594,178.079
1393514492594,177.861
1393514552594,177.695
1393514612594,177.486
1393514672594,178.089
1393514732594,177.464
1393514792594,177.820
1393514852594,177.439
1393514912594,177.928
1393514972594,177.736
1393515032594,177.729
1393515092594,177.583
1393515152594,177.545
1393515212594,177.474
1393515272594,177.236
1393515332594,177.472
1393515392594,177.277
1393515452594,177.244
1393515512594,177.744
1393515572594,178.192
1393515632594,177.503
1393515692594,177.685
1393515752594,177.254
1393515812594,177.080
1393515872594,177.310
1393515932594,177.486
1393515992594,177.191
1393516052594,177.387
1393516112594,177.492
1393516172594,177.545
1393516232594,177.355
1393516292594,177.207
1393516352594,177.095
1393516412594,177.255
1393516472594,177.151
1393516532594,177.732
1393516592594,177.333
1393516652594,177.104
1393516712594,177.153
1393516772594,176.906
1393516832607,176.705
1393516892607,176.968
1393516952607,177.393
1393517012607,177.066
1393517072607,177.018
1393517132607,177.057
1393517192607,177.197
1393517252607,176.759
1393517312607,176.823
1393517372607,176.930
1393517432607,176.764
1393517492607,176.964
1393517552607,176.782
1393517612607,177.120
1393517672607,177.021
1393517732607,176.737
1393517792607,177.250
1393517852607,176.784
1393517912607,177.062
1393517972607,176.815
1393518032607,177.138
1393518092607,176.573
1393518152607,176.739
1393518212607,177.042
1393518272607,177.098
1393518332607,177.090
1393518392607,177.063
1393518452607,176.621
1393518512607,176.955
1393518572607,176.720
1393518632607,176.946
1393518692607,176.987
1393518752607,176.919
1393518812607,177.085
1393518872607,176.724
1393518932607,176.831
1393518992607,176.577
1393519052607,177.071
1393519112607,176.757
1393519172607,176.867
1393519232607,177.038
1393519292607,176.884
1393519352607,176.862
1393519412607,177.217
1393519472607,176.787
1393519532607,177.138
1393519592607,176.951
1393519652607,177.106
1393519712607,176.963
1393519772607,177.121
1393519832607,177.060
1393519892607,176.905
1393519952607,177.180
1393520012607,177.343
1393520072607,177.199
1393520132607,177.346
1393520192607,177.373
1393520252607,177.667
1393520312607,177.751
1393520372607,177.436
1393520432619,177.630
1393520492619,177.497
1393520552619,177.682
1393520612619,177.730
1393520672619,177.522
1393520732619,177.332
1393520792619,177.681
1393520852619,177.414
1393520912619,177.678
1393520972619,177.622
1393521032619,177.736
1393521092619,177.656
1393521152619,177.791
1393521212619,177.518
1393521272619,177.361
1393521332619,177.704
1393521392619,177.640
1393521452619,177.365
1393521512619,177.625
1393521572619,177.301
1393521632619,177.569
1393521692619,177.675
1393521752619,178.002
1393521812619,177.587
1393521872619,177.970
1393521932619,177.766
1393521992619,177.859
1393522052619,178.334
1393522112619,177.917
1393522172619,178.402
1393522232619,178.657
1393522292619,178.414
1393522352619,178.258
1393522412619,178.062
1393522472619,178.387
1393522532619,178.606
1393522592619,178.691
1393522652619,178.415
1393522712619,178.769
1393522772619,178.501
1393522832619,178.643
1393522892619,178.755
1393522952619,178.405
1393523012619,178.652
1393523072619,178.261
1393523132619,178.442
1393523192619,178.507
1393523252619,178.711
1393523312619,178.643
1393523372619,178.631
1393523432619,178.619
1393523492619,178.679
1393523552619,178.691
1393523612619,178.801
1393523672619,178.742
1393523732619,178.840
1393523792619,178.844
1393523852619,179.029
1393523912619,178.771
1393523972619,178.645
1393524032631,178.808
1393524092631,178.617
1393524152631,178.785
1393524212631,178.652
1393524272631,178.615
1393524332631,178.958
1393524392631,178.897
1393524452631,178.992
1393524512631,179.210
1393524572631,178.657
1393524632631,179.289
1393524692631,179.228
1393524752631,178.931
1393524812631,178.528
1393524872631,178.983
1393524932631,179.023
1393524992631,178.900
1393525052631,179.341
1393525112631,178.660
1393525172631,178.922
1393525232631,178.989
1393525292631,179.301
1393525352631,178.871
1393525412631,178.665
1393525472631,179.045
1393525532631,178.479
1393525592631,178.873
1393525652631,179.174
1393525712631,179.195
1393525772631,179.155
1393525832631,179.205
1393525892631,179.166
1393525952631,179.320
1393526012631,178.983
1393526072631,179.315
1393526132631,179.543
1393526192631,179.288
1393526252631,179.331
1393526312631,179.517
1393526372631,179.399
1393526432631,179.374
1393526492631,179.429
1393526552631,179.201
1393526612631,179.552
1393526672631,179.651
1393526732631,179.977
1393526792631,179.789
1393526852631,179.294
1393526912631,179.705
1393526972631,179.688
1393527032631,179.707
1393527092631,179.768
1393527152631,179.894